User: anonymous   Login
Location: Greenwich
(51.4790°N, 0.0090°E)
Time: 16:37:18
(UTC+01:00)
Language:

deb Delta 98 - Orbit

View from above orbital plane
View from above orbital plane
View from above satellite
View from above satellite

Ground track
Ground track

The orbit data is extracted from the following two-line orbital elements,

1  7054U 73086AW  24194.21437149 -.00000460  00000-0 -10174-2 0  9998
2  7054 101.5269 175.8693 0313590 322.2482  47.9122 13.03667616408821
Epoch (UTC): 12 July 2024 05:08:41
Eccentricity: 0.0313590
inclination: 101.5269°
perigee height: 1008 km
apogee height: 1487 km
right ascension of ascending node: 175.8693°
argument of perigee: 322.2482°
revolutions per day: 13.03667616
mean anomaly at epoch: 47.9122°
orbit number at epoch: 40882

The dashed part of the orbit path shows where the satellite is in the earth's shadow,  

DLR